This is the latest recevied weather packets stored in our database for station/object WX4SGA. If no packets are shown the sender has not sent any weather packets the latest 10 day(s).
| Time | Temp. | Humidity | Pressure | Rain* | Wind** | Luminosity | Snow |
|---|---|---|---|---|---|---|---|
| 1777830686 | 22.22° C | 36% | 1020 hPa | 0 mm | - | 854 W/m² | - |
| 1777830382 | 22.22° C | 34% | 1020 hPa | 0 mm | - | 791 W/m² | - |
| 1777830080 | 22.22° C | 33% | 1020.3 hPa | 0 mm | - | 813 W/m² | - |
| 1777829774 | 22.22° C | 37% | 1020 hPa | 0 mm | - | 753 W/m² | - |
| 1777829472 | 21.67° C | 37% | 1020.3 hPa | 0 mm | - | 825 W/m² | - |
| 1777829169 | 22.22° C | 39% | 1020.3 hPa | 0 mm | - | 843 W/m² | - |
| 1777828866 | 22.22° C | 35% | 1020.3 hPa | 0 mm | - | 837 W/m² | - |
| 1777828562 | 22.78° C | 34% | 1020.3 hPa | 0 mm | - | 865 W/m² | - |
| 1777828260 | 22.22° C | 32% | 1020.7 hPa | 0 mm | - | 856 W/m² | - |
| 1777827955 | 22.22° C | 34% | 1020.7 hPa | 0 mm | - | 855 W/m² | - |
| 1777827653 | 21.67° C | 32% | 1020.7 hPa | 0 mm | - | 850 W/m² | - |
| 1777827351 | 22.22° C | 37% | 1020.7 hPa | 0 mm | - | 846 W/m² | - |
| 1777827047 | 22.22° C | 41% | 1021 hPa | 0 mm | - | 808 W/m² | - |
| 1777826744 | 21.67° C | 37% | 1020.7 hPa | 0 mm | - | 815 W/m² | - |
| 1777826440 | 21.67° C | 34% | 1020.7 hPa | 0 mm | - | 829 W/m² | - |
| 1777826137 | 21.67° C | 39% | 1021 hPa | 0 mm | - | 821 W/m² | - |
| 1777825834 | 21.67° C | 35% | 1021 hPa | 0 mm | - | 818 W/m² | - |
| 1777825531 | 21.67° C | 37% | 1021 hPa | 0 mm | - | 807 W/m² | - |
| 1777825229 | 21.67° C | 40% | 1021 hPa | 0 mm | - | 803 W/m² | - |
| 1777824926 | 21.67° C | 38% | 1021 hPa | 0 mm | - | 790 W/m² | - |
| 1777824622 | 21.11° C | 36% | 1021.3 hPa | 0 mm | - | 786 W/m² | - |
| 1777824319 | 21.11° C | 40% | 1021.3 hPa | 0 mm | - | 776 W/m² | - |
| 1777824015 | 21.11° C | 37% | 1021 hPa | 0 mm | - | 765 W/m² | - |
| 1777823711 | 21.11° C | 42% | 1021 hPa | 0 mm | - | 757 W/m² | - |
| 1777823408 | 21.11° C | 38% | 1021 hPa | 0 mm | - | 747 W/m² | - |
* Rain latest hour (hover to see other rain measurements)
** Current wind speed in m/s (hover to see current wind gust speed)